Montrose, CO

10:11 AM MDT on September 25, 2016 (GMT -0600)
Montrose Regional

Weather History for KMTJ - August, 2013

Change the Weather History Date:

Wednesday, August 28, 2013

  Actual Average Record
Temperature  
Mean Temperature 74 °F 68 °F  
Max Temperature 89 °F 83 °F 91 °F (2001)
Min Temperature 59 °F 53 °F 41 °F (2004)
Degree Days  
Heating Degree Days 0 0  
Month to date heating degree days 2 0  
Since 1 June heating degree days 11 39  
Since 1 July heating degree days 2 0  
Cooling Degree Days 9 4  
Month to date cooling degree days 154 173  
Year to date cooling degree days 770 595  
Since 1 June cooling degree days 745 578  
Growing Degree Days 24 (Base 50)    
Moisture  
Dew Point 53 °F    
Average Humidity 56    
Maximum Humidity 87    
Minimum Humidity 24    
Precipitation  
Precipitation 0.00 in 0.04 in 0.23 in (1999)
Month to date precipitation 1.29 1.12  
Year to date precipitation 6.02 7.19  
Sea Level Pressure  
Sea Level Pressure 30.01 in    
Wind  
Wind Speed 8 mph (SSE)    
Max Wind Speed 35 mph    
Max Gust Speed 44 mph    
Visibility 10 miles    
Events      
T = Trace of Precipitation, MM = Missing Value Source: NWS Daily Summary

Daily Weather History Graph

Daily Weather History Graph

Search for Another Location

Airport or City:

Trip Planner

Search our weather history database for the weather conditions in past years. The results will help you decide how hot, cold, wet, or windy it might be!

Date:

Astronomy

Aug. 28, 2013 Rise Set
Actual Time 6:37 AM MDT 7:47 PM MDT
Civil Twilight 6:10 AM MDT 8:14 PM MDT
Nautical Twilight 5:37 AM MDT 8:46 PM MDT
Astronomical Twilight 5:03 AM MDT 9:20 PM MDT
Moon No Moon Rise 2:25 PM MDT (8/28)
Length of Visible Light 14h 04m
Length of Day
13h 09m
Waning Gibbous, 47% of the Moon is Illuminated
Aug 28
Waning Gibbous
Sep 5
New
Sep 12
First Quarter
Sep 19
Full
Sep 26
Last Quarter

Hourly Weather History & Observations

Time (MDT) Temp. Heat Index Dew Point Humidity Pressure Visibility Wind Dir Wind Speed Gust Speed Precip Events Conditions
12:53 AM 64.9 °F - 57.0 °F 75% 30.01 in 10.0 mi SE 11.5 mph - N/A   Clear
1:53 AM 64.0 °F - 57.0 °F 78% 30.00 in 10.0 mi SE 5.8 mph - N/A   Partly Cloudy
2:53 AM 64.0 °F - 57.0 °F 78% 29.99 in 10.0 mi SSE 3.5 mph - N/A   Scattered Clouds
3:53 AM 63.0 °F - 55.9 °F 78% 29.99 in 10.0 mi SE 5.8 mph - N/A   Clear
4:53 AM 62.1 °F - 55.0 °F 78% 29.99 in 10.0 mi SSE 5.8 mph - N/A   Clear
5:53 AM 60.1 °F - 55.0 °F 83% 30.01 in 10.0 mi SE 8.1 mph - N/A   Clear
6:53 AM 59.0 °F - 55.0 °F 87% 30.04 in 10.0 mi SE 5.8 mph - N/A   Scattered Clouds
7:53 AM 63.0 °F - 55.0 °F 75% 30.05 in 10.0 mi SE 9.2 mph - N/A   Clear
8:53 AM 68.0 °F - 55.0 °F 63% 30.04 in 10.0 mi South 4.6 mph - N/A   Clear
9:53 AM 72.0 °F - 55.0 °F 55% 30.04 in 10.0 mi Calm Calm - N/A   Clear
10:53 AM 77.0 °F - 53.1 °F 43% 30.03 in 10.0 mi Calm Calm - N/A   Clear
11:53 AM 81.0 °F 80.7 °F 55.0 °F 41% 30.00 in 10.0 mi Variable 5.8 mph - N/A   Clear
12:53 PM 84.0 °F 82.6 °F 54.0 °F 35% 29.98 in 10.0 mi North 5.8 mph - N/A   Clear
1:53 PM 84.0 °F 82.6 °F 54.0 °F 35% 29.96 in 10.0 mi WNW 8.1 mph - N/A   Clear
2:53 PM 87.1 °F - 46.9 °F 25% 29.92 in 10.0 mi NNW 8.1 mph - N/A   Clear
3:53 PM 88.0 °F - 46.9 °F 24% 29.90 in 10.0 mi NNW 9.2 mph - N/A   Clear
4:53 PM 88.0 °F - 50.0 °F 27% 29.90 in 10.0 mi NNW 13.8 mph - N/A   Clear
5:53 PM 86.0 °F - 50.0 °F 29% 29.92 in 10.0 mi NNW 9.2 mph - N/A   Partly Cloudy
6:53 PM 84.0 °F 82.5 °F 53.1 °F 34% 29.94 in 10.0 mi West 5.8 mph - N/A   Mostly Cloudy
7:29 PM 78.8 °F - 51.8 °F 39% 30.22 in 2.5 mi South 21.9 mph 43.7 mph N/A   Haze
7:37 PM 78.8 °F - 50.0 °F 36% 30.22 in 10.0 mi South 19.6 mph 34.5 mph N/A   Partly Cloudy
7:53 PM 75.9 °F - 48.9 °F 38% 30.00 in 10.0 mi SSE 23.0 mph 32.2 mph N/A   Partly Cloudy
8:53 PM 72.0 °F - 52.0 °F 49% 30.01 in 10.0 mi SSE 12.7 mph - N/A   Partly Cloudy
9:53 PM 71.1 °F - 52.0 °F 51% 30.00 in 10.0 mi SE 15.0 mph 20.7 mph N/A   Clear
10:53 PM 69.1 °F - 53.1 °F 57% 30.02 in 10.0 mi SE 13.8 mph - N/A   Partly Cloudy
11:53 PM 68.0 °F - 52.0 °F 56% 30.01 in 10.0 mi SE 12.7 mph - N/A   Clear